Flag for USA

Past Weather in Buffalo, New York, USA — Yesterday and Last 2 Weeks

Now
75 °F

Passing clouds.


Feels Like: 76 °F
Forecast: 84 / 69 °F
Wind: 3 mph from Southwest

Location: Greater Buffalo International Airport

Current Time: Jul 4, 2020 at 3:12:51 am

Latest Report: Jul 4, 2020 at 1:54 am


Visibility: 10 mi

Pressure: 29.92 "Hg

Humidity: 79%

Dew Point: 68 °F

Location of BuffaloLocation

Past Weather in Buffalo — Graph

°F

Buffalo Temperature Yesterday

Maximum temperature yesterday: 89 °F (at 2:54 pm)
Minimum temperature yesterday: 73 °F (at 1:54 am)
Average temperature yesterday: 80 °F

High & Low Weather Summary for the Past Weeks

 TemperatureHumidityPressure
High89 °F (Jul 3, 2:54 pm)100% (Jun 23, 5:01 pm)30.06 "Hg (Jun 23, 5:01 pm)
Low56 °F (Jun 25, 5:54 am)29% (Jun 21, 3:54 pm)29.56 "Hg (Jun 23, 3:54 pm)
Average72 °F71%29.87 "Hg
* Reported Jun 19 1:54 am — Jul 4 1:54 am, Buffalo. Weather by CustomWeather, © 2020

Note: Actual official high and low records may vary slightly from our data, if they occured in-between our weather recording intervals... More about our weather records

Buffalo Weather History for the Previous 24 Hours

Scroll right to see more
 ConditionsComfort  
Time TempWeatherWind HumidityBarometerVisibility
1:54 am
Sat, Jul 4
75 °FPassing clouds.3 mph79%29.92 "Hg10 mi
12:54 am75 °FPassing clouds.5 mph82%29.92 "Hg10 mi
11:54 pm
Fri, Jul 3
76 °FPassing clouds.7 mph80%29.92 "Hg9 mi
10:54 pm78 °FPassing clouds.6 mph71%29.93 "Hg10 mi
10:33 pm78 °FPassing clouds.7 mph71%29.95 "Hg10 mi
9:54 pm80 °FThunderstorms. Passing clouds.10 mph64%29.93 "Hg10 mi
9:23 pm80 °FThunderstorms. Passing clouds.7 mph64%29.93 "Hg10 mi
8:54 pm81 °FPassing clouds.8 mph60%29.90 "Hg10 mi
7:54 pm83 °FPassing clouds.10 mph57%29.90 "Hg10 mi
6:54 pm83 °FBroken clouds.10 mph57%29.90 "Hg10 mi
5:54 pm83 °FBroken clouds.10 mph57%29.90 "Hg10 mi
4:54 pm88 °FBroken clouds.6 mph46%29.90 "Hg10 mi
3:54 pm87 °FBroken clouds.10 mph48%29.91 "Hg10 mi
2:54 pm89 °FBroken clouds.13 mph46%29.92 "Hg10 mi
1:54 pm88 °FPartly sunny.9 mph46%29.93 "Hg10 mi
12:54 pm87 °FBroken clouds.7 mph48%29.94 "Hg10 mi
11:54 am84 °FScattered clouds.10 mph55%29.93 "Hg10 mi
10:54 am81 °FPartly sunny.10 mph60%29.93 "Hg10 mi
9:54 am81 °FScattered clouds.5 mph58%29.93 "Hg10 mi
8:54 am79 °FScattered clouds.8 mph65%29.93 "Hg10 mi
7:54 am76 °FScattered clouds.10 mph72%29.92 "Hg10 mi
6:54 am74 °FScattered clouds.8 mph74%29.93 "Hg10 mi
5:54 am73 °FPassing clouds.9 mph79%29.92 "Hg10 mi
4:54 am73 °FPassing clouds.9 mph79%29.91 "Hg10 mi
3:54 am73 °FClear.7 mph79%29.91 "Hg10 mi
Weather by CustomWeather, © 2020

See weather overview